Regional Weather Roundup
Issued by NWS Burlington, VT

Home | Current Version | Previous Version | Text Only | Print | Product List | Glossary On
Versions: 1 2 3 4 5 6 7 8 9 10 11 12 13 14 15 16 17 18 19 20 21 22 23 24 25 26 27 28 29 30 31 32 33 34 35 36 37 38 39 40 41 42 43 44 45 46 47 48 49 50
000
ASUS41 KBTV 022210
RWRBTV
VERMONT REGIONAL WEATHER ROUNDUP
NATIONAL WEATHER SERVICE BURLINGTON VT
500 PM EST MON MAR 02 2015

NOTE: "FAIR" INDICATES FEW OR NO CLOUDS BELOW 12,000 FEET WITH NO
SIGNIFICANT WEATHER AND/OR OBSTRUCTIONS TO VISIBILITY.

* THESE REPORTS ARE NOT UNDER NWS QUALITY CONTROL AND/OR DO NOT
  REPORT WEATHER SUCH AS PRECIPITATION AND FOG.

VTZ001>019-022300-
_____VERMONT_____


CITY           SKY/WX    TMP DP  RH WIND       PRES   REMARKS
BURLINGTON     LGT SNOW  26  14  60 NW21G33   30.11R WCI  12
MONTPELIER     LGT SNOW  21  13  71 NW21G32   30.03R WCI   5
MORRISVILLE    LGT SNOW  24   9  52 NW18G37   30.04R VSB 1   WCI  10
ST. JOHNSBURY*   N/A     25   6  44 MISG      29.99R
LYNDONVILLE*   LGT SNOW  23   7  50 W21G30    29.97R WCI   8
MIDDLEBURY*    MOCLDY    27  13  55 N8        30.08R
RUTLAND*       CLOUDY    27  10  50 W13G29    30.05R WCI  16
SPRINGFIELD    CLOUDY    28  10  46 NW15G26   30.04R WCI  16
HIGHGATE*      MOCLDY    24  14  65 W7G18     30.10R
NEWPORT*       LGT SNOW  21  11  64 W18G36    30.00R WCI   7
BENNINGTON     CLOUDY    27  10  49 NW20G37   30.10R WCI  13
SUTTON*          N/A     19 N/A N/A MISG        N/A

_____LAKE CHAMPLAIN_____


CITY           SKY/WX    TMP DP  RH WIND       PRES   REMARKS

$$

NYZ007-026>031-035-052-083-022300-
_____NORTHERN NEW YORK_____


CITY           SKY/WX    TMP DP  RH WIND       PRES   REMARKS
PLATTSBURGH    CLOUDY    26  14  60 VRB7      30.11R
SARANAC LAKE   SNOW      19  15  84 W10G24    30.03R VSB 1/2 WCI   7
MASSENA        MOCLDY    25  10  53 NW21G29   30.20R WCI  11
OGDENSBURG*    CLEAR     27  12  54 NW14G21   30.21R WCI  15
POTSDAM*       PTCLDY    25  12  58 NW13G20   30.18R WCI  13
WATERTOWN      PTCLDY    26  12  55 W21G32    30.26R WCI  12
FT DRUM        DRIZZLE   24  11  58 W16G25    30.20R WCI  10
ALBANY         FLURRIES  28  14  55 NW16G36   30.17R WCI  16
GLENS FALLS    CLOUDY    29   9  43 NW25G35   30.13R WCI  14

$$
NHZ002-005-011-022300-
_____NEW HAMPSHIRE_____


CITY           SKY/WX    TMP DP  RH WIND       PRES   REMARKS
LEBANON        FLURRIES  27  16  63 NW14G24   30.03R WCI  16
KEENE          MOCLDY    28  18  64 NW7G22    30.04R
MT WASHINGTON  SNOW      -2  -2 100 NW77G96     N/A  VSB 0   WCI -39
PLYMOUTH       LGT SNOW  26  17  69 W12G22    30.00R WCI  15
WHITEFIELD     FLURRIES  22  10  60 W13G31    29.96R WCI  10

$$

_____REGIONAL QUEBEC LOCATIONS_____


CITY           SKY/WX    TMP DP  RH WIND       PRES   REMARKS
MONTREAL       PTCLDY    23  10  58 W20G35    30.12R WCI   8
QUEBEC CITY    FLURRIES  21  10  63 NW23G32   29.92R WCI   5
SHERBROOKE     SNOW      19  16  86 W22G33    29.95R VSB 3/8 WCI   3

_____REGIONAL ONTARIO LOCATIONS_____


CITY           SKY/WX    TMP DP  RH WIND       PRES   REMARKS
OTTAWA         PTCLDY    23   7  50 NW17G28   30.19R WCI   9

______KEY______
VSB  - VISIBILITY IN MILES
WCI  - WIND CHILL INDEX
HX   - HEAT INDEX
$$
NNNN


USA.gov is the U.S. government's official web portal to all federal, state and local government web resources and services.